• Join FlightAware (Why Join?)
  • Login
  • US Flag 
11:56AM EST


 

Airport Tracker/Info


-or-


 

Live Flight TrackerFlight Track Log ✈ SWA586 ✈ 10-May-2013 ✈ KLAX - KOAK

Flight Track Log - Related Links

Times and Time Zones

All times are in EDT time to prevent confusion due to time zone crossing. See the SWA586 flight status page for this flight to view local times or setup timezone preferences in your user account.

Time Position Orientation Groundspeed Altitude Reporting Facility
EDT Latitude Longitude Course Direction KTS MPH feet Rate Location/Type
12:52AM 33.9367 -118.5383 254° West 232 267 4,300  Level Los Angeles Center
12:53AM 33.9258 -118.6292 262° West 271 312 7,600 3,180 Climbing Los Angeles Center
12:54AM 33.9139 -118.7358 262° West 299 344 10,800 2,580 Climbing Los Angeles Center
12:55AM 33.9017 -118.8522 263° West 357 411 12,900 2,040 Climbing Los Angeles Center
12:56AM 33.8858 -118.9792 261° West 385 443 15,000 1,800 Climbing Los Angeles Center
12:57AM 34.1018 -119.0352 320° Northwest  Level FlightAware Approximate
12:57AM 33.9175 -119.0919 289° West 379 436 16,700  Level Los Angeles Center
12:58AM 33.9944 -119.1786 317° Northwest 379 436 18,700 1,620 Climbing Los Angeles Center
12:59AM 34.0717 -119.2700 316° Northwest 391 450 20,000 2,040 Climbing Los Angeles Center
01:00AM 34.1514 -119.3619 316° Northwest 393 452 23,000 2,640 Climbing Los Angeles Center
01:01AM 34.2300 -119.4514 317° Northwest 391 450 25,500 2,040 Climbing Los Angeles Center
01:02AM 34.3217 -119.5239 327° Northwest 392 451 27,200 2,220 Climbing Los Angeles Center
01:03AM 34.4308 -119.6181 325° Northwest 402 463 30,100 2,460 Climbing Los Angeles Center
01:04AM 34.5161 -119.6919 324° Northwest 381 438 32,300 1,680 Climbing Los Angeles Center
01:05AM 34.6008 -119.7667 324° Northwest 378 435 33,600 780 Climbing Los Angeles Center
01:07AM 34.6858 -119.8417 324° Northwest 381 438 34,000 180 Climbing Los Angeles Center
01:08AM 34.7781 -119.8050 18° North 368 423 34,000  Level Los Angeles Center
01:09AM 34.8622 -119.7342 35° Northeast 368 423 34,000  Level Los Angeles Center
01:10AM 34.9486 -119.6664 33° Northeast 371 427 34,000  Level Los Angeles Center
01:11AM 35.0417 -119.6992 344° North 361 415 34,000  Level Los Angeles Center
01:12AM 35.1500 -119.7697 332° Northwest 373 429 34,000  Level Los Angeles Center
01:13AM 35.2442 -119.8281 333° Northwest 379 436 34,000  Level Los Angeles Center
01:14AM 35.3372 -119.8869 333° Northwest 379 436 34,000  Level Los Angeles Center
01:14AM 35.4131 -119.9336 333° Northwest 383 441 34,000  Level Oakland Center
01:15AM 35.5078 -119.9939 333° Northwest 387 445 34,000  Level Oakland Center
01:16AM 35.6019 -120.0547 332° Northwest 386 444 34,000  Level Oakland Center
01:17AM 35.6969 -120.1158 332° Northwest 390 449 34,000  Level Oakland Center
01:18AM 35.7925 -120.1767 333° Northwest 390 449 34,000  Level Oakland Center
01:19AM 35.8883 -120.2386 332° Northwest 393 452 34,000 -420 Level Oakland Center
01:20AM 35.9839 -120.2994 333° Northwest 391 450 33,200 -900 Descending Oakland Center
01:21AM 36.0778 -120.3597 333° Northwest 382 440 32,300 -600 Descending Oakland Center
01:23AM 36.1767 -120.4236 332° Northwest 401 461 32,000 -180 Descending Oakland Center
01:24AM 36.2778 -120.4911 332° Northwest 412 474 32,000  Level Oakland Center
01:25AM 36.3961 -120.5692 332° Northwest 404 465 32,000 -360 Level Oakland Center
01:26AM 36.4950 -120.6306 333° Northwest 399 459 31,300 -900 Descending Oakland Center
01:27AM 36.5900 -120.6978 330° Northwest 395 455 30,300 -900 Descending Oakland Center
01:28AM 36.6894 -120.7622 333° Northwest 404 465 29,500 -1,680 Descending Oakland Center
01:29AM 36.7789 -120.8475 323° Northwest 405 466 27,000 -2,580 Descending Oakland Center
01:30AM 36.8581 -120.9406 317° Northwest 398 458 24,300 -2,700 Descending Oakland Center
01:31AM 36.9394 -121.0328 318° Northwest 395 455 21,600 -2,700 Descending Oakland Center
01:32AM 37.0164 -121.1250 316° Northwest 383 441 18,900 -2,580 Descending Oakland Center
01:33AM 37.0933 -121.2103 319° Northwest 371 427 16,400 -2,580 Descending Oakland Center
01:34AM 37.1683 -121.2978 317° Northwest 370 426 13,700 -2,640 Descending Oakland Center
01:35AM 37.2414 -121.3825 317° Northwest 362 417 11,100 -1,920 Descending Oakland Center
01:36AM 37.3108 -121.4647 317° Northwest 347 399 9,900 -1,440 Descending Oakland Center
01:37AM 37.3725 -121.5367 317° Northwest 303 349 8,300 -1,500 Descending Oakland Center
01:38AM 37.4314 -121.6044 318° Northwest 291 335 6,900 -780 Descending Oakland Center
01:38AM 37.4833 -121.6667 316° Northwest 276 318 7,000 -120 Climbing Northern Cal TRACON
01:39AM 37.5333 -121.7333 313° West 276 318 6,700 -540 Descending Northern Cal TRACON
01:40AM 37.5833 -121.8000 313° West 256 295 6,000 -360 Descending Northern Cal TRACON
01:41AM 37.6333 -121.8500 322° Northwest 219 252 6,000 -540 Level Northern Cal TRACON
01:42AM 37.6333 -121.9167 270° West 238 274 5,000 -660 Descending Northern Cal TRACON
01:44AM 37.5500 -121.9833 212° Southwest 210 242 4,100 -420 Descending Northern Cal TRACON
01:45AM 37.5833 -122.0333 310° West 180 207 3,800 -600 Descending Northern Cal TRACON
01:46AM 37.6000 -122.0667 302° West 143 165 3,000 -840 Descending Northern Cal TRACON
01:47AM 37.6167 -122.1000 302° West 127 146 2,300 -720 Descending Northern Cal TRACON
01:48AM 37.6322 -122.1111 331° Northwest 138 159 2,000 -660 Descending Oakland Center
01:49AM 37.6547 -122.1436 311° West 128 147 1,400 -660 Descending Oakland Center
01:50AM 37.6789 -122.1789 311° West 130 150 700 9,180 Descending Oakland Center
01:51AM 37.7019 -122.2136 310° West 130 150 20,000 18,960 Climbing Oakland Center
01:53AM 37.7167 -122.2167 270° West  Level FlightAware Approximate